Regional Weather Roundup
Issued by NWS Cleveland, OH

Home | Current Version | Previous Version | Text Only | Print | Product List | Glossary Off
Versions: 1 2 3 4 5 6 7 8 9 10 11 12 13 14 15 16 17 18 19 20 21 22 23 24 25 26 27 28 29 30 31 32 33 34 35 36 37 38 39 40 41 42 43 44 45 46 47 48 49 50

000
ASUS41 KCLE 120802
RWRCLE
OHIO REGIONAL WEATHER ROUNDUP
NATIONAL WEATHER SERVICE CLEVELAND, OH
400 AM EDT SAT JUL 12 2014

NOTE: "FAIR" INDICATES FEW OR NO CLOUDS BELOW 12,000 FEET WITH NO
SIGNIFICANT WEATHER AND/OR OBSTRUCTIONS TO VISIBILITY.

OHZ001>008-015>018-024>027-034-035-043-044-120900-
   NORTHWEST OHIO

CITY           SKY/WX    TMP DP  RH WIND       PRES   REMARKS
DEFIANCE       PTCLDY    65  60  84 CALM      30.15F
FINDLAY        MOCLDY    69  62  78 SE3       30.15F
TOLEDO EXPRESS PTCLDY    62  59  90 CALM      30.15F
TOLEDO EXEC    CLOUDY    68  59  73 S3        30.16F
LIMA           CLOUDY    70  63  78 S5        30.17S
$$

OHZ009>014-019>023-028>033-038-089-120900-
   NORTHEAST OHIO

CITY           SKY/WX    TMP DP  RH WIND       PRES   REMARKS
CLE-HOPKINS    MOCLDY    64  55  72 S6        30.18F
CLE-LAKEFRONT  MOCLDY    68  56  65 SE9       30.15F
CUY CO. ARPT   NOT AVBL
LORAIN-ELYRIA  MOCLDY    68  57  68 S3        30.17F
ASHTABULA      MOCLDY    60  57  89 CALM      30.19F
AKRON-CANTON   MOCLDY    66  56  70 CALM      30.19F
WOOSTER        CLOUDY    63  60  90 CALM      30.19F
MANSFIELD      CLOUDY    65  61  87 CALM      30.19F
YOUNGSTOWN     MOCLDY    61  56  83 CALM      30.19S
$$

OHZ042-051>053-060>062-070>072-077>081-120900-
  SOUTHWEST OHIO

CITY           SKY/WX    TMP DP  RH WIND       PRES   REMARKS
CINC-COVINGTON PTCLDY    61  57  87 CALM      30.17S
CINC-LUNKEN    MOCLDY    64  62  93 CALM      30.17S
HAMILTON       MOCLDY    65  64  97 CALM      30.17S
DAYTON         CLOUDY    72  61  68 CALM      30.18F
WRIGHT-PAT AFB CLOUDY    67  62  81 N2        30.17F
DAYTON GENERAL CLOUDY    68  63  84 NE5       30.16F
WILMINGTON     CLOUDY    64  60  87 CALM      30.17F
$$

OHZ036-037-039>041-045>050-054>059-063>069-073>076-082>088-120900-
  CENTRAL AND SOUTHEAST OHIO

CITY           SKY/WX    TMP DP  RH WIND       PRES   REMARKS
COLUMBUS       MOCLDY    69  59  70 CALM      30.16F
OSU AIRPORT    CLOUDY    67  61  81 CALM      30.17S
BOLTON FIELD   NOT AVBL
RICKENBACK AFB MOCLDY    65  58  78 CALM      30.17S
NEWARK         MOCLDY    63  60  90 CALM      30.17F
MARION         CLOUDY    67  60  78 CALM      30.17F
LANCASTER      MOCLDY    61  58  90 CALM      30.17F
ZANESVILLE     MOCLDY    64  60  87 CALM      30.18F
NEW PHILLY     MOCLDY    63  61  93 CALM      30.19F FOG
$$


USA.gov is the U.S. government's official web portal to all federal, state and local government web resources and services.